000000,18.2606, 07 Nov 2015, 00:00:36
000030,18.2607, 07 Nov 2015, 00:01:07
000100,18.2615, 07 Nov 2015, 00:01:36
000130,18.262, 07 Nov 2015, 00:02:06
000200,18.264, 07 Nov 2015, 00:02:36
000230,18.2658, 07 Nov 2015, 00:03:06
000300,18.2686, 07 Nov 2015, 00:03:36
000330,18.2711, 07 Nov 2015, 00:04:06
000400,18.2733, 07 Nov 2015, 00:04:36
000430,18.2744, 07 Nov 2015, 00:05:06
000500,18.2747, 07 Nov 2015, 00:05:36
000530,18.276, 07 Nov 2015, 00:06:06
000600,18.2763, 07 Nov 2015, 00:06:36
000630,18.2763, 07 Nov 2015, 00:07:06
000700,18.2754, 07 Nov 2015, 00:07:36
000730,18.2724, 07 Nov 2015, 00:08:06
000800,18.2692, 07 Nov 2015, 00:08:35
000830,18.2657, 07 Nov 2015, 00:09:06
000900,18.261, 07 Nov 2015, 00:09:36
000930,18.2566, 07 Nov 2015, 00:10:06
001000,18.2504, 07 Nov 2015, 00:10:36
001030,18.2452, 07 Nov 2015, 00:11:05
001100,18.24, 07 Nov 2015, 00:11:36
001130,18.234, 07 Nov 2015, 00:12:06
001200,18.2292, 07 Nov 2015, 00:12:36
001230,18.2242, 07 Nov 2015, 00:13:06
001300,18.2192, 07 Nov 2015, 00:13:35
001330,18.2131, 07 Nov 2015, 00:14:06
001400,18.2057, 07 Nov 2015, 00:14:36
001430,18.1957, 07 Nov 2015, 00:15:06
001500,18.1832, 07 Nov 2015, 00:15:36
001530,18.17, 07 Nov 2015, 00:16:05
001600,18.153, 07 Nov 2015, 00:16:36
001630,18.1353, 07 Nov 2015, 00:17:06
001700,18.1146, 07 Nov 2015, 00:17:36
001730,18.0932, 07 Nov 2015, 00:18:05
001800,18.0667, 07 Nov 2015, 00:18:35
001830,18.0342, 07 Nov 2015, 00:19:06
001900,17.9994, 07 Nov 2015, 00:19:36
001930,17.9586, 07 Nov 2015, 00:20:06
002000,17.9174, 07 Nov 2015, 00:20:35
002030,17.8793, 07 Nov 2015, 00:21:05
002100,17.8473, 07 Nov 2015, 00:21:36
002130,17.8204, 07 Nov 2015, 00:22:06
002200,17.7994, 07 Nov 2015, 00:22:35
002230,17.7814, 07 Nov 2015, 00:23:05
002300,17.7662, 07 Nov 2015, 00:23:36
002330,17.7535, 07 Nov 2015, 00:24:06
002400,17.7424, 07 Nov 2015, 00:24:36
002430,17.7342, 07 Nov 2015, 00:25:05
002500,17.7272, 07 Nov 2015, 00:25:35
002530,17.722, 07 Nov 2015, 00:26:06
002600,17.7193, 07 Nov 2015, 00:26:36
002630,17.7175, 07 Nov 2015, 00:27:05
002700,17.7184, 07 Nov 2015, 00:27:35
002730,17.7209, 07 Nov 2015, 00:28:06
002800,17.7237, 07 Nov 2015, 00:28:36
002830,17.7279, 07 Nov 2015, 00:29:05
002900,17.7312, 07 Nov 2015, 00:29:35
002930,17.736, 07 Nov 2015, 00:30:05
003000,17.7405, 07 Nov 2015, 00:30:36
003030,17.7446, 07 Nov 2015, 00:31:05
003100,17.7494, 07 Nov 2015, 00:31:35
003130,17.7544, 07 Nov 2015, 00:32:05
003200,17.7586, 07 Nov 2015, 00:32:36
003230,17.7627, 07 Nov 2015, 00:33:06
003300,17.7673, 07 Nov 2015, 00:33:35
003330,17.7703, 07 Nov 2015, 00:34:05
003400,17.7741, 07 Nov 2015, 00:34:35
003430,17.7772, 07 Nov 2015, 00:35:06
003500,17.7805, 07 Nov 2015, 00:35:35
003530,17.7838, 07 Nov 2015, 00:36:05
003600,17.7881, 07 Nov 2015, 00:36:35
003630,17.7924, 07 Nov 2015, 00:37:06
003700,17.7972, 07 Nov 2015, 00:37:36
003730,17.8015, 07 Nov 2015, 00:38:06
003800,17.8056, 07 Nov 2015, 00:38:36
003830,17.8094, 07 Nov 2015, 00:39:06
003900,17.8127, 07 Nov 2015, 00:39:36
003930,17.8165, 07 Nov 2015, 00:40:06
004000,17.8197, 07 Nov 2015, 00:40:36
004030,17.8231, 07 Nov 2015, 00:41:06
004100,17.8268, 07 Nov 2015, 00:41:36
004130,17.8299, 07 Nov 2015, 00:42:06
004200,17.8334, 07 Nov 2015, 00:42:36
004230,17.8367, 07 Nov 2015, 00:43:06
004300,17.8413, 07 Nov 2015, 00:43:37
004330,17.8454, 07 Nov 2015, 00:44:06
004400,17.8488, 07 Nov 2015, 00:44:36
004430,17.8526, 07 Nov 2015, 00:45:06
004500,17.8548, 07 Nov 2015, 00:45:36
004530,17.8574, 07 Nov 2015, 00:46:06
004600,17.8594, 07 Nov 2015, 00:46:36
004630,17.8607, 07 Nov 2015, 00:47:06
004700,17.8611, 07 Nov 2015, 00:47:36
004730,17.862, 07 Nov 2015, 00:48:06
004800,17.8624, 07 Nov 2015, 00:48:36
004830,17.8631, 07 Nov 2015, 00:49:06
004900,17.8637, 07 Nov 2015, 00:49:36
004930,17.8641, 07 Nov 2015, 00:50:05
005000,17.8645, 07 Nov 2015, 00:50:36
005030,17.8648, 07 Nov 2015, 00:51:06
005100,17.8658, 07 Nov 2015, 00:51:36
005130,17.8662, 07 Nov 2015, 00:52:05
005200,17.867, 07 Nov 2015, 00:52:36
005230,17.8675, 07 Nov 2015, 00:53:06
005300,17.8672, 07 Nov 2015, 00:53:36
005330,17.8672, 07 Nov 2015, 00:54:06
005400,17.8671, 07 Nov 2015, 00:54:36
005430,17.8671, 07 Nov 2015, 00:55:06
005500,17.8664, 07 Nov 2015, 00:55:36
005530,17.8654, 07 Nov 2015, 00:56:06
005600,17.8645, 07 Nov 2015, 00:56:35
005630,17.8629, 07 Nov 2015, 00:57:06
005700,17.8606, 07 Nov 2015, 00:57:36
005730,17.8586, 07 Nov 2015, 00:58:05
005800,17.8561, 07 Nov 2015, 00:58:35
005830,17.8535, 07 Nov 2015, 00:59:06
005900,17.8503, 07 Nov 2015, 00:59:36
005930,17.8475, 07 Nov 2015, 01:00:06
010000,17.8454, 07 Nov 2015, 01:00:35
010030,17.8437, 07 Nov 2015, 01:01:05
010100,17.8419, 07 Nov 2015, 01:01:36
010130,17.8408, 07 Nov 2015, 01:02:06
010200,17.84, 07 Nov 2015, 01:02:36
010230,17.8386, 07 Nov 2015, 01:03:05
010300,17.838, 07 Nov 2015, 01:03:36
010330,17.8374, 07 Nov 2015, 01:04:06
010400,17.8367, 07 Nov 2015, 01:04:36
010430,17.8364, 07 Nov 2015, 01:05:05
010500,17.8366, 07 Nov 2015, 01:05:35
010530,17.8363, 07 Nov 2015, 01:06:06
010600,17.8367, 07 Nov 2015, 01:06:36
010630,17.8363, 07 Nov 2015, 01:07:06
010700,17.8362, 07 Nov 2015, 01:07:35
010730,17.8357, 07 Nov 2015, 01:08:05
010800,17.836, 07 Nov 2015, 01:08:36
010830,17.8362, 07 Nov 2015, 01:09:06
010900,17.8368, 07 Nov 2015, 01:09:35
010930,17.8372, 07 Nov 2015, 01:10:05
011000,17.8379, 07 Nov 2015, 01:10:36
011030,17.8384, 07 Nov 2015, 01:11:06
011100,17.8391, 07 Nov 2015, 01:11:35
011130,17.8399, 07 Nov 2015, 01:12:05
011200,17.8411, 07 Nov 2015, 01:12:35
011230,17.8418, 07 Nov 2015, 01:13:06
011300,17.8431, 07 Nov 2015, 01:13:36
011330,17.8442, 07 Nov 2015, 01:14:05
011400,17.8457, 07 Nov 2015, 01:14:35
011430,17.8482, 07 Nov 2015, 01:15:06
011500,17.8503, 07 Nov 2015, 01:15:36
011530,17.8548, 07 Nov 2015, 01:16:05
011600,17.8598, 07 Nov 2015, 01:16:35
011630,17.8652, 07 Nov 2015, 01:17:05
011700,17.8703, 07 Nov 2015, 01:17:36
011730,17.875, 07 Nov 2015, 01:18:06
011800,17.8792, 07 Nov 2015, 01:18:36
011830,17.8835, 07 Nov 2015, 01:19:06
011900,17.8891, 07 Nov 2015, 01:19:37
011930,17.8944, 07 Nov 2015, 01:20:06
012000,17.9012, 07 Nov 2015, 01:20:36
012030,17.9074, 07 Nov 2015, 01:21:06
012100,17.9139, 07 Nov 2015, 01:21:36
012130,17.9201, 07 Nov 2015, 01:22:06
012200,17.9261, 07 Nov 2015, 01:22:36
012230,17.9316, 07 Nov 2015, 01:23:06
012300,17.9374, 07 Nov 2015, 01:23:36
012330,17.9431, 07 Nov 2015, 01:24:07
012400,17.9491, 07 Nov 2015, 01:24:36
012430,17.9546, 07 Nov 2015, 01:25:06
012500,17.9596, 07 Nov 2015, 01:25:36
012530,17.964, 07 Nov 2015, 01:26:06
012600,17.9684, 07 Nov 2015, 01:26:36
012630,17.9722, 07 Nov 2015, 01:27:06
012700,17.9754, 07 Nov 2015, 01:27:36
012730,17.9788, 07 Nov 2015, 01:28:06
012800,17.9815, 07 Nov 2015, 01:28:36
012830,17.9839, 07 Nov 2015, 01:29:06
012900,17.9852, 07 Nov 2015, 01:29:36
012930,17.9863, 07 Nov 2015, 01:30:06
013000,17.9865, 07 Nov 2015, 01:30:35
013030,17.9869, 07 Nov 2015, 01:31:06
013100,17.9869, 07 Nov 2015, 01:31:36
013130,17.9876, 07 Nov 2015, 01:32:06
013200,17.9886, 07 Nov 2015, 01:32:35
013230,17.9898, 07 Nov 2015, 01:33:06
013300,17.9914, 07 Nov 2015, 01:33:36
013330,17.9931, 07 Nov 2015, 01:34:06
013400,17.9955, 07 Nov 2015, 01:34:36
013430,17.9977, 07 Nov 2015, 01:35:06
013500,17.9992, 07 Nov 2015, 01:35:36
013530,18, 07 Nov 2015, 01:36:06
013600,18.0007, 07 Nov 2015, 01:36:36
013630,18.0015, 07 Nov 2015, 01:37:06
013700,18.002, 07 Nov 2015, 01:37:35
013730,18.002, 07 Nov 2015, 01:38:06
013800,18.0021, 07 Nov 2015, 01:38:36
013830,18.0019, 07 Nov 2015, 01:39:06
013900,18.0014, 07 Nov 2015, 01:39:36
013930,18.0014, 07 Nov 2015, 01:40:05
014000,18.0006, 07 Nov 2015, 01:40:35
014030,17.9991, 07 Nov 2015, 01:41:06
014100,17.9976, 07 Nov 2015, 01:41:36
014130,17.9955, 07 Nov 2015, 01:42:06
014200,17.9941, 07 Nov 2015, 01:42:35
014230,17.9916, 07 Nov 2015, 01:43:06
014300,17.9873, 07 Nov 2015, 01:43:36
014330,17.9804, 07 Nov 2015, 01:44:06
014400,17.9728, 07 Nov 2015, 01:44:35
014430,17.9639, 07 Nov 2015, 01:45:06
014500,17.9527, 07 Nov 2015, 01:45:36
014530,17.9392, 07 Nov 2015, 01:46:06
014600,17.9196, 07 Nov 2015, 01:46:35
014630,17.8994, 07 Nov 2015, 01:47:05
014700,17.8825, 07 Nov 2015, 01:47:36
014730,17.8688, 07 Nov 2015, 01:48:06
014800,17.8585, 07 Nov 2015, 01:48:35
014830,17.85, 07 Nov 2015, 01:49:05
014900,17.8435, 07 Nov 2015, 01:49:36
014930,17.8398, 07 Nov 2015, 01:50:06
015000,17.8364, 07 Nov 2015, 01:50:35
015030,17.8342, 07 Nov 2015, 01:51:05
015100,17.8347, 07 Nov 2015, 01:51:35
015130,17.8346, 07 Nov 2015, 01:52:06
015200,17.8335, 07 Nov 2015, 01:52:35
015230,17.8319, 07 Nov 2015, 01:53:05
015300,17.8296, 07 Nov 2015, 01:53:35
015330,17.8281, 07 Nov 2015, 01:54:06
015400,17.8261, 07 Nov 2015, 01:54:36
015430,17.8246, 07 Nov 2015, 01:55:05
015500,17.8238, 07 Nov 2015, 01:55:35
015530,17.8225, 07 Nov 2015, 01:56:06
015600,17.8218, 07 Nov 2015, 01:56:36
015630,17.8213, 07 Nov 2015, 01:57:05
015700,17.8205, 07 Nov 2015, 01:57:35
015730,17.8197, 07 Nov 2015, 01:58:07
015800,17.8193, 07 Nov 2015, 01:58:36
015830,17.8195, 07 Nov 2015, 01:59:06
015900,17.8192, 07 Nov 2015, 01:59:36
015930,17.819, 07 Nov 2015, 02:00:06
020000,17.8175, 07 Nov 2015, 02:00:37
020030,17.8166, 07 Nov 2015, 02:01:06
020100,17.8154, 07 Nov 2015, 02:01:36
020130,17.8155, 07 Nov 2015, 02:02:06
020200,17.815, 07 Nov 2015, 02:02:36
020230,17.8143, 07 Nov 2015, 02:03:06
020300,17.814, 07 Nov 2015, 02:03:36
020330,17.8139, 07 Nov 2015, 02:04:06
020400,17.8134, 07 Nov 2015, 02:04:36
020430,17.8134, 07 Nov 2015, 02:05:07
020500,17.8137, 07 Nov 2015, 02:05:36
020530,17.8141, 07 Nov 2015, 02:06:06
020600,17.814, 07 Nov 2015, 02:06:36
020630,17.8148, 07 Nov 2015, 02:07:06
020700,17.8146, 07 Nov 2015, 02:07:37
020730,17.8157, 07 Nov 2015, 02:08:06
020800,17.8159, 07 Nov 2015, 02:08:36
020830,17.8165, 07 Nov 2015, 02:09:06
020900,17.8169, 07 Nov 2015, 02:09:35
020930,17.8175, 07 Nov 2015, 02:10:06
021000,17.8176, 07 Nov 2015, 02:10:36
021030,17.8175, 07 Nov 2015, 02:11:06
021100,17.8177, 07 Nov 2015, 02:11:36
021130,17.8164, 07 Nov 2015, 02:12:06
021200,17.8163, 07 Nov 2015, 02:12:36
021230,17.8159, 07 Nov 2015, 02:13:06
021300,17.8156, 07 Nov 2015, 02:13:36
021330,17.8151, 07 Nov 2015, 02:14:05
021400,17.8152, 07 Nov 2015, 02:14:36
021430,17.8149, 07 Nov 2015, 02:15:06
021500,17.8148, 07 Nov 2015, 02:15:36
021530,17.815, 07 Nov 2015, 02:16:06
021600,17.8149, 07 Nov 2015, 02:16:36
021630,17.8151, 07 Nov 2015, 02:17:06
021700,17.816, 07 Nov 2015, 02:17:36
021730,17.8179, 07 Nov 2015, 02:18:05
021800,17.8191, 07 Nov 2015, 02:18:35
021830,17.8206, 07 Nov 2015, 02:19:06
021900,17.8218, 07 Nov 2015, 02:19:36
021930,17.8236, 07 Nov 2015, 02:20:06
022000,17.8245, 07 Nov 2015, 02:20:35
022030,17.8253, 07 Nov 2015, 02:21:06
022100,17.8262, 07 Nov 2015, 02:21:36
022130,17.8262, 07 Nov 2015, 02:22:06
022200,17.8266, 07 Nov 2015, 02:22:35
022230,17.8272, 07 Nov 2015, 02:23:05
022300,17.826, 07 Nov 2015, 02:23:36
022330,17.8247, 07 Nov 2015, 02:24:06
022400,17.8231, 07 Nov 2015, 02:24:35
022430,17.8226, 07 Nov 2015, 02:25:05
022500,17.8206, 07 Nov 2015, 02:25:36
022530,17.8187, 07 Nov 2015, 02:26:06
022600,17.8174, 07 Nov 2015, 02:26:36
022630,17.8152, 07 Nov 2015, 02:27:05
022700,17.812, 07 Nov 2015, 02:27:36
022730,17.8101, 07 Nov 2015, 02:28:06
022800,17.8083, 07 Nov 2015, 02:28:35
022830,17.8068, 07 Nov 2015, 02:29:05
022900,17.8054, 07 Nov 2015, 02:29:35
022930,17.8047, 07 Nov 2015, 02:30:06
023000,17.8049, 07 Nov 2015, 02:30:36
023030,17.8045, 07 Nov 2015, 02:31:05
023100,17.8041, 07 Nov 2015, 02:31:35
023130,17.8036, 07 Nov 2015, 02:32:06
023200,17.8029, 07 Nov 2015, 02:32:36
023230,17.8027, 07 Nov 2015, 02:33:05
023300,17.8033, 07 Nov 2015, 02:33:35
023330,17.8038, 07 Nov 2015, 02:34:05
023400,17.8046, 07 Nov 2015, 02:34:36
023430,17.805, 07 Nov 2015, 02:35:05
023500,17.8058, 07 Nov 2015, 02:35:35
023530,17.8048, 07 Nov 2015, 02:36:05
023600,17.8055, 07 Nov 2015, 02:36:36
023630,17.8064, 07 Nov 2015, 02:37:06
023700,17.8073, 07 Nov 2015, 02:37:35
023730,17.8081, 07 Nov 2015, 02:38:06
023800,17.8089, 07 Nov 2015, 02:38:37
023830,17.8106, 07 Nov 2015, 02:39:06
023900,17.8121, 07 Nov 2015, 02:39:36
023930,17.8134, 07 Nov 2015, 02:40:06
024000,17.8152, 07 Nov 2015, 02:40:36
024030,17.8175, 07 Nov 2015, 02:41:06
024100,17.819, 07 Nov 2015, 02:41:36
024130,17.8203, 07 Nov 2015, 02:42:06
024200,17.8221, 07 Nov 2015, 02:42:36
024230,17.8236, 07 Nov 2015, 02:43:07
024300,17.8248, 07 Nov 2015, 02:43:36
024330,17.8269, 07 Nov 2015, 02:44:06
024400,17.8282, 07 Nov 2015, 02:44:36
024430,17.8311, 07 Nov 2015, 02:45:07
024500,17.8328, 07 Nov 2015, 02:45:36
024530,17.8354, 07 Nov 2015, 02:46:06
024600,17.8376, 07 Nov 2015, 02:46:36
024630,17.8398, 07 Nov 2015, 02:47:07
024700,17.8423, 07 Nov 2015, 02:47:36
024730,17.8445, 07 Nov 2015, 02:48:06
024800,17.847, 07 Nov 2015, 02:48:36
024830,17.85, 07 Nov 2015, 02:49:06
024900,17.8524, 07 Nov 2015, 02:49:36
024930,17.8538, 07 Nov 2015, 02:50:06
025000,17.856, 07 Nov 2015, 02:50:36
025030,17.8571, 07 Nov 2015, 02:51:06
025100,17.86, 07 Nov 2015, 02:51:36
025130,17.8625, 07 Nov 2015, 02:52:06
025200,17.8657, 07 Nov 2015, 02:52:36
025230,17.8694, 07 Nov 2015, 02:53:06
025300,17.8732, 07 Nov 2015, 02:53:35
025330,17.876, 07 Nov 2015, 02:54:06
025400,17.8777, 07 Nov 2015, 02:54:36
025430,17.8808, 07 Nov 2015, 02:55:06
025500,17.8865, 07 Nov 2015, 02:55:36
025530,17.8909, 07 Nov 2015, 02:56:06
025600,17.895, 07 Nov 2015, 02:56:36
025630,17.8986, 07 Nov 2015, 02:57:06
025700,17.9034, 07 Nov 2015, 02:57:36
025730,17.9073, 07 Nov 2015, 02:58:06
025800,17.9116, 07 Nov 2015, 02:58:36
025830,17.9149, 07 Nov 2015, 02:59:06
025900,17.9171, 07 Nov 2015, 02:59:35
025930,17.9182, 07 Nov 2015, 03:00:05
030000,17.9177, 07 Nov 2015, 03:00:36
030030,17.9152, 07 Nov 2015, 03:01:06
030100,17.9131, 07 Nov 2015, 03:01:36
030130,17.9093, 07 Nov 2015, 03:02:05
030200,17.9052, 07 Nov 2015, 03:02:36
030230,17.901, 07 Nov 2015, 03:03:06
030300,17.898, 07 Nov 2015, 03:03:36
030330,17.8948, 07 Nov 2015, 03:04:06
030400,17.8951, 07 Nov 2015, 03:04:35
030430,17.8962, 07 Nov 2015, 03:05:06
030500,17.8979, 07 Nov 2015, 03:05:36
030530,17.8983, 07 Nov 2015, 03:06:06
030600,17.8983, 07 Nov 2015, 03:06:35
030630,17.897, 07 Nov 2015, 03:07:05
030700,17.8953, 07 Nov 2015, 03:07:36
030730,17.8947, 07 Nov 2015, 03:08:06
030800,17.8946, 07 Nov 2015, 03:08:35
030830,17.8955, 07 Nov 2015, 03:09:05
030900,17.8964, 07 Nov 2015, 03:09:35
030930,17.8973, 07 Nov 2015, 03:10:06
031000,17.8972, 07 Nov 2015, 03:10:36
031030,17.8973, 07 Nov 2015, 03:11:05
031100,17.897, 07 Nov 2015, 03:11:35
031130,17.8977, 07 Nov 2015, 03:12:06
031200,17.8987, 07 Nov 2015, 03:12:36
031230,17.8994, 07 Nov 2015, 03:13:05
031300,17.9005, 07 Nov 2015, 03:13:35
031330,17.9019, 07 Nov 2015, 03:14:05
031400,17.9034, 07 Nov 2015, 03:14:36
031430,17.9059, 07 Nov 2015, 03:15:06
031500,17.9076, 07 Nov 2015, 03:15:35
031530,17.9093, 07 Nov 2015, 03:16:05
031600,17.9109, 07 Nov 2015, 03:16:36
031630,17.912, 07 Nov 2015, 03:17:06
031700,17.9133, 07 Nov 2015, 03:17:35
031730,17.9144, 07 Nov 2015, 03:18:06
031800,17.9148, 07 Nov 2015, 03:18:37
031830,17.9146, 07 Nov 2015, 03:19:06
031900,17.9141, 07 Nov 2015, 03:19:36
031930,17.9129, 07 Nov 2015, 03:20:06
032000,17.9125, 07 Nov 2015, 03:20:36
032030,17.9115, 07 Nov 2015, 03:21:07
032100,17.9112, 07 Nov 2015, 03:21:36
032130,17.9102, 07 Nov 2015, 03:22:06
032200,17.9094, 07 Nov 2015, 03:22:36
032230,17.9075, 07 Nov 2015, 03:23:07
032300,17.9061, 07 Nov 2015, 03:23:36
032330,17.9035, 07 Nov 2015, 03:24:06
032400,17.9007, 07 Nov 2015, 03:24:36
032430,17.898, 07 Nov 2015, 03:25:06
032500,17.8934, 07 Nov 2015, 03:25:37
032530,17.888, 07 Nov 2015, 03:26:06
032600,17.8826, 07 Nov 2015, 03:26:36
032630,17.8772, 07 Nov 2015, 03:27:06
032700,17.8716, 07 Nov 2015, 03:27:37
032730,17.866, 07 Nov 2015, 03:28:06
032800,17.8606, 07 Nov 2015, 03:28:36
032830,17.8558, 07 Nov 2015, 03:29:06
032900,17.8516, 07 Nov 2015, 03:29:35
032930,17.8481, 07 Nov 2015, 03:30:06
033000,17.8425, 07 Nov 2015, 03:30:36
033030,17.8355, 07 Nov 2015, 03:31:06
033100,17.8241, 07 Nov 2015, 03:31:36
033130,17.8119, 07 Nov 2015, 03:32:06
033200,17.7962, 07 Nov 2015, 03:32:36
033230,17.7776, 07 Nov 2015, 03:33:06
033300,17.7555, 07 Nov 2015, 03:33:36
033330,17.7303, 07 Nov 2015, 03:34:06
033400,17.7012, 07 Nov 2015, 03:34:36
033430,17.6733, 07 Nov 2015, 03:35:06
033500,17.6465, 07 Nov 2015, 03:35:36
033530,17.6206, 07 Nov 2015, 03:36:06
033600,17.596, 07 Nov 2015, 03:36:36
033630,17.5682, 07 Nov 2015, 03:37:06
033700,17.5334, 07 Nov 2015, 03:37:36
033730,17.4879, 07 Nov 2015, 03:38:05
033800,17.4375, 07 Nov 2015, 03:38:36
033830,17.3892, 07 Nov 2015, 03:39:06
033900,17.3457, 07 Nov 2015, 03:39:36
033930,17.308, 07 Nov 2015, 03:40:06
034000,17.2748, 07 Nov 2015, 03:40:35
034030,17.2452, 07 Nov 2015, 03:41:06
034100,17.2202, 07 Nov 2015, 03:41:36
034130,17.1972, 07 Nov 2015, 03:42:06
034200,17.177, 07 Nov 2015, 03:42:35
034230,17.1594, 07 Nov 2015, 03:43:05
034300,17.1418, 07 Nov 2015, 03:43:36
034330,17.1259, 07 Nov 2015, 03:44:06
034400,17.1122, 07 Nov 2015, 03:44:36
034430,17.1019, 07 Nov 2015, 03:45:05
034500,17.0928, 07 Nov 2015, 03:45:35
034530,17.086, 07 Nov 2015, 03:46:06
034600,17.0794, 07 Nov 2015, 03:46:36
034630,17.0742, 07 Nov 2015, 03:47:06
034700,17.0685, 07 Nov 2015, 03:47:35
034730,17.0639, 07 Nov 2015, 03:48:05
034800,17.0602, 07 Nov 2015, 03:48:36
034830,17.0579, 07 Nov 2015, 03:49:06
034900,17.0574, 07 Nov 2015, 03:49:35
034930,17.0565, 07 Nov 2015, 03:50:05
035000,17.0549, 07 Nov 2015, 03:50:35
035030,17.0541, 07 Nov 2015, 03:51:06
035100,17.0527, 07 Nov 2015, 03:51:36
035130,17.051, 07 Nov 2015, 03:52:05
035200,17.0504, 07 Nov 2015, 03:52:35
035230,17.0478, 07 Nov 2015, 03:53:05
035300,17.0465, 07 Nov 2015, 03:53:36
035330,17.0459, 07 Nov 2015, 03:54:06
035400,17.0455, 07 Nov 2015, 03:54:35
035430,17.0458, 07 Nov 2015, 03:55:05
035500,17.0447, 07 Nov 2015, 03:55:35
035530,17.0438, 07 Nov 2015, 03:56:06
035600,17.0428, 07 Nov 2015, 03:56:36
035630,17.041, 07 Nov 2015, 03:57:05
035700,17.0403, 07 Nov 2015, 03:57:35
035730,17.0383, 07 Nov 2015, 03:58:06
035800,17.0379, 07 Nov 2015, 03:58:37
035830,17.0371, 07 Nov 2015, 03:59:06
035900,17.036, 07 Nov 2015, 03:59:36
035930,17.0348, 07 Nov 2015, 04:00:06
040000,17.0338, 07 Nov 2015, 04:00:36
040030,17.0337, 07 Nov 2015, 04:01:07
040100,17.0327, 07 Nov 2015, 04:01:37
040130,17.0322, 07 Nov 2015, 04:02:06
040200,17.032, 07 Nov 2015, 04:02:36
040230,17.0309, 07 Nov 2015, 04:03:06
040300,17.031, 07 Nov 2015, 04:03:36
040330,17.031, 07 Nov 2015, 04:04:07
040400,17.0304, 07 Nov 2015, 04:04:36
040430,17.0294, 07 Nov 2015, 04:05:06
040500,17.0285, 07 Nov 2015, 04:05:36
040530,17.0279, 07 Nov 2015, 04:06:06
040600,17.0278, 07 Nov 2015, 04:06:36
040630,17.0277, 07 Nov 2015, 04:07:07
040700,17.0279, 07 Nov 2015, 04:07:36
040730,17.0278, 07 Nov 2015, 04:08:06
040800,17.0277, 07 Nov 2015, 04:08:36
040830,17.027, 07 Nov 2015, 04:09:06
040900,17.0259, 07 Nov 2015, 04:09:37
040930,17.0233, 07 Nov 2015, 04:10:06
041000,17.0231, 07 Nov 2015, 04:10:36
041030,17.0221, 07 Nov 2015, 04:11:06
041100,17.0223, 07 Nov 2015, 04:11:36
041130,17.0224, 07 Nov 2015, 04:12:06
041200,17.0215, 07 Nov 2015, 04:12:36
041230,17.0213, 07 Nov 2015, 04:13:06
041300,17.0201, 07 Nov 2015, 04:13:36
041330,17.0202, 07 Nov 2015, 04:14:06
041400,17.0188, 07 Nov 2015, 04:14:36
041430,17.0187, 07 Nov 2015, 04:15:07
041500,17.0183, 07 Nov 2015, 04:15:36
041530,17.019, 07 Nov 2015, 04:16:06
041600,17.0192, 07 Nov 2015, 04:16:36
041630,17.0187, 07 Nov 2015, 04:17:06
041700,17.0183, 07 Nov 2015, 04:17:36
041730,17.0171, 07 Nov 2015, 04:18:06
041800,17.0166, 07 Nov 2015, 04:18:36
041830,17.0157, 07 Nov 2015, 04:19:06
041900,17.0151, 07 Nov 2015, 04:19:36
041930,17.0147, 07 Nov 2015, 04:20:05
042000,17.0146, 07 Nov 2015, 04:20:35
042030,17.0147, 07 Nov 2015, 04:21:06
042100,17.0139, 07 Nov 2015, 04:21:36
042130,17.0139, 07 Nov 2015, 04:22:06
042200,17.0146, 07 Nov 2015, 04:22:36
042230,17.0146, 07 Nov 2015, 04:23:05
042300,17.0143, 07 Nov 2015, 04:23:36
042330,17.0136, 07 Nov 2015, 04:24:06
042400,17.0127, 07 Nov 2015, 04:24:36
042430,17.0116, 07 Nov 2015, 04:25:06
042500,17.0096, 07 Nov 2015, 04:25:35
042530,17.0085, 07 Nov 2015, 04:26:05
042600,17.0074, 07 Nov 2015, 04:26:36
042630,17.0068, 07 Nov 2015, 04:27:06
042700,17.0058, 07 Nov 2015, 04:27:36
042730,17.0041, 07 Nov 2015, 04:28:05
042800,17.0039, 07 Nov 2015, 04:28:35
042830,17.0037, 07 Nov 2015, 04:29:06
042900,17.0052, 07 Nov 2015, 04:29:36
042930,17.0063, 07 Nov 2015, 04:30:06
043000,17.0072, 07 Nov 2015, 04:30:35
043030,17.0066, 07 Nov 2015, 04:31:05
043100,17.0056, 07 Nov 2015, 04:31:35
043130,17.0041, 07 Nov 2015, 04:32:06
043200,17.0026, 07 Nov 2015, 04:32:36
043230,17.0016, 07 Nov 2015, 04:33:06
043300,16.9999, 07 Nov 2015, 04:33:35
043330,16.9988, 07 Nov 2015, 04:34:05
043400,16.9977, 07 Nov 2015, 04:34:36
043430,16.9981, 07 Nov 2015, 04:35:06
043500,16.9981, 07 Nov 2015, 04:35:36
043530,16.998, 07 Nov 2015, 04:36:05
043600,16.9973, 07 Nov 2015, 04:36:35
043630,16.9965, 07 Nov 2015, 04:37:06
043700,16.9962, 07 Nov 2015, 04:37:36
043730,16.9967, 07 Nov 2015, 04:38:06
043800,16.996, 07 Nov 2015, 04:38:36
043830,16.9956, 07 Nov 2015, 04:39:07
043900,16.994, 07 Nov 2015, 04:39:36
043930,16.9931, 07 Nov 2015, 04:40:06
044000,16.9923, 07 Nov 2015, 04:40:36
044030,16.9908, 07 Nov 2015, 04:41:07
044100,16.9896, 07 Nov 2015, 04:41:37
044130,16.9893, 07 Nov 2015, 04:42:06
044200,16.9889, 07 Nov 2015, 04:42:36
044230,16.9886, 07 Nov 2015, 04:43:06
044300,16.9874, 07 Nov 2015, 04:43:37
044330,16.9874, 07 Nov 2015, 04:44:06
044400,16.9884, 07 Nov 2015, 04:44:36
044430,16.9884, 07 Nov 2015, 04:45:06
044500,16.9885, 07 Nov 2015, 04:45:37
044530,16.9879, 07 Nov 2015, 04:46:06
044600,16.9865, 07 Nov 2015, 04:46:36
044630,16.9862, 07 Nov 2015, 04:47:06
044700,16.9868, 07 Nov 2015, 04:47:37
044730,16.9867, 07 Nov 2015, 04:48:06
044800,16.9859, 07 Nov 2015, 04:48:36
044830,16.9843, 07 Nov 2015, 04:49:06
044900,16.9833, 07 Nov 2015, 04:49:36
044930,16.9824, 07 Nov 2015, 04:50:06
045000,16.9815, 07 Nov 2015, 04:50:36
045030,16.9801, 07 Nov 2015, 04:51:06
045100,16.9783, 07 Nov 2015, 04:51:36
045130,16.9758, 07 Nov 2015, 04:52:06
045200,16.9732, 07 Nov 2015, 04:52:36
045230,16.9714, 07 Nov 2015, 04:53:06
045300,16.9695, 07 Nov 2015, 04:53:36
045330,16.9677, 07 Nov 2015, 04:54:06
045400,16.9668, 07 Nov 2015, 04:54:36
045430,16.966, 07 Nov 2015, 04:55:06
045500,16.9637, 07 Nov 2015, 04:55:36
045530,16.9625, 07 Nov 2015, 04:56:07
045600,16.9609, 07 Nov 2015, 04:56:36
045630,16.9588, 07 Nov 2015, 04:57:06
045700,16.9575, 07 Nov 2015, 04:57:36
045730,16.9564, 07 Nov 2015, 04:58:05
045800,16.9557, 07 Nov 2015, 04:58:36
045830,16.9542, 07 Nov 2015, 04:59:06
045900,16.9528, 07 Nov 2015, 04:59:36
045930,16.9521, 07 Nov 2015, 05:00:05
050000,16.9503, 07 Nov 2015, 05:00:36
050030,16.9488, 07 Nov 2015, 05:01:06
050100,16.9486, 07 Nov 2015, 05:01:36
050130,16.9484, 07 Nov 2015, 05:02:06
050200,16.9481, 07 Nov 2015, 05:02:35
050230,16.9482, 07 Nov 2015, 05:03:06
050300,16.9476, 07 Nov 2015, 05:03:36
050330,16.9478, 07 Nov 2015, 05:04:06
050400,16.9482, 07 Nov 2015, 05:04:36
050430,16.9478, 07 Nov 2015, 05:05:05
050500,16.9478, 07 Nov 2015, 05:05:36
050530,16.9489, 07 Nov 2015, 05:06:06
050600,16.9484, 07 Nov 2015, 05:06:36
050630,16.9476, 07 Nov 2015, 05:07:05
050700,16.9458, 07 Nov 2015, 05:07:36
050730,16.9442, 07 Nov 2015, 05:08:06
050800,16.9424, 07 Nov 2015, 05:08:36